Weather History for Arusha, Tanzania

Change the Weather History Date:

Wednesday, November 20, 2013

  Actual Average Record
Temperature  
Mean Temperature 72 °F -  
Max Temperature 82 °F - - ()
Min Temperature 62 °F - - ()
Cooling Degree Days 7    
Growing Degree Days 22 (Base 50)    
Moisture  
Dew Point 58 °F    
Average Humidity 64    
Maximum Humidity 94    
Minimum Humidity 32    
Precipitation  
Precipitation 0.00 in 0.14 in - ()
Sea Level Pressure  
Sea Level Pressure 30.01 in    
Wind  
Wind Speed 5 mph ()    
Max Wind Speed 17 mph    
Max Gust Speed -    
Visibility 6.2 miles    
Events      
T = Trace of Precipitation, MM = Missing Value Source: Averaged Metar Reports

Daily Weather History Graph

Daily Weather History Graph

Search for Another Location

Airport:

Trip Planner

Search our weather history database for the weather conditions in past years. The results will help you decide how hot, cold, wet, or windy it might be!

Date:

Astronomy

Nov. 20, 2013 Rise Set
Actual Time 6:10 AM EAT 6:27 PM EAT
Civil Twilight 5:48 AM EAT 6:49 PM EAT
Nautical Twilight 5:22 AM EAT 7:15 PM EAT
Astronomical Twilight 4:57 AM EAT 7:41 PM EAT
Moon 8:52 PM EAT (11/20) 8:18 AM EAT (11/20)
Length of Visible Light 13h 01m
Length of Day
12h 16m
Waning Gibbous, 93% of the Moon is Illuminated
Nov 20
Waning Gibbous
Nov 25
Last Quarter
Dec 3
New
Dec 9
First Quarter
Dec 17
Full

Hourly Weather History & Observations

Time (EAT) Temp. Heat Index Dew Point Humidity Pressure Visibility Wind Dir Wind Speed Gust Speed Precip Events Conditions
1:00 AM 66.2 °F - 62.6 °F 88% 30.04 in 6.2 mi Calm Calm - N/A   Mostly Cloudy
2:00 AM 64.4 °F - 60.8 °F 88% 30.04 in 6.2 mi Calm Calm - N/A   Scattered Clouds
3:00 AM 62.6 °F - 60.8 °F 94% 30.01 in 6.2 mi Calm Calm - N/A   Scattered Clouds
4:00 AM 62.6 °F - 60.8 °F 94% 30.01 in 6.2 mi Calm Calm - N/A   Scattered Clouds
6:00 AM 62.6 °F - 60.8 °F 94% 30.04 in 6.2 mi Calm Calm - N/A   Mostly Cloudy
7:00 AM 64.4 °F - 62.6 °F 94% 30.04 in 6.2 mi Calm Calm - N/A   Mostly Cloudy
8:00 AM 66.2 °F - 62.6 °F 88% 30.09 in 6.2 mi Calm Calm - N/A   Mostly Cloudy
9:00 AM 69.8 °F - 64.4 °F 83% 30.06 in 6.2 mi Calm Calm - N/A   Scattered Clouds
10:00 AM 71.6 °F - 64.4 °F 78% 30.09 in 6.2 mi East 11.5 mph - N/A   Mostly Cloudy
11:00 AM 77.0 °F - 60.8 °F 57% 30.06 in 6.2 mi SE 11.5 mph - N/A   Scattered Clouds
12:00 PM 80.6 °F 81.1 °F 59.0 °F 48% 30.04 in 6.2 mi ESE 5.8 mph - N/A   Scattered Clouds
1:00 PM 80.6 °F 80.8 °F 57.2 °F 45% 30.01 in 6.2 mi East 17.3 mph - N/A   Scattered Clouds
2:00 PM 80.6 °F 80.5 °F 55.4 °F 42% 29.98 in 6.2 mi East 17.3 mph - N/A   Scattered Clouds
3:00 PM 82.4 °F 81.4 °F 53.6 °F 37% 29.95 in 6.2 mi East 11.5 mph - N/A   Scattered Clouds
4:00 PM 82.4 °F - 50.0 °F 32% 29.92 in 6.2 mi ESE 17.3 mph - N/A   Scattered Clouds
5:00 PM 80.6 °F - 50.0 °F 34% 29.92 in 6.2 mi East 17.3 mph - N/A   Scattered Clouds
6:00 PM 80.6 °F - 50.0 °F 34% 29.92 in 6.2 mi East 17.3 mph - N/A   Scattered Clouds
7:00 PM 78.8 °F - 55.4 °F 44% 29.98 in 6.2 mi ENE 11.5 mph - N/A   Scattered Clouds
8:00 PM 73.4 °F - 55.4 °F 53% 29.98 in 6.2 mi ENE 5.8 mph - N/A   Scattered Clouds
9:00 PM 71.6 °F - 57.2 °F 60% 30.01 in 6.2 mi ENE 5.8 mph - N/A   Partly Cloudy